Veribest, TX

9:16 AM CST on February 07, 2016 (GMT -0600)
San Angelo Regional-Mathis

Weather History for KSJT - April, 2013

Change the Weather History Date:

Friday, April 19, 2013

  Actual Average Record
Temperature  
Mean Temperature 51 °F 67 °F  
Max Temperature 68 °F 81 °F 107 °F (1925)
Min Temperature 34 °F 53 °F 34 °F (2013)
Degree Days  
Heating Degree Days 14 2  
Month to date heating degree days 77 71  
Since 1 July heating degree days 1866 2289  
Cooling Degree Days 0 4  
Month to date cooling degree days 117 59  
Year to date cooling degree days 192 97  
Growing Degree Days 2 (Base 50)    
Moisture  
Dew Point 24 °F    
Average Humidity 45    
Maximum Humidity 76    
Minimum Humidity 14    
Precipitation  
Precipitation 0.00 in 0.05 in 0.85 in (1949)
Month to date precipitation 0.98 0.83  
Year to date precipitation 2.81 4.61  
Snow  
Snow 0.00 in 0.00 in 0.00 in (2002)
Month to date snowfall T 0.0  
Since 1 July snowfall 2.8 2.2  
Snow Depth 0.00 in    
Sea Level Pressure  
Sea Level Pressure 30.22 in    
Wind  
Wind Speed 4 mph (ENE)    
Max Wind Speed 10 mph    
Max Gust Speed 16 mph    
Visibility 10 miles    
Events      
T = Trace of Precipitation, MM = Missing Value Source: NWS Daily Summary

Daily Weather History Graph

Daily Weather History Graph

Search for Another Location

Airport or City:

Trip Planner

Search our weather history database for the weather conditions in past years. The results will help you decide how hot, cold, wet, or windy it might be!

Date:

Astronomy

Apr. 19, 2013 Rise Set
Actual Time 7:09 AM CDT 8:13 PM CDT
Civil Twilight 6:43 AM CDT 8:38 PM CDT
Nautical Twilight 6:14 AM CDT 9:08 PM CDT
Astronomical Twilight 5:43 AM CDT 9:39 PM CDT
Moon 2:22 PM CDT (4/19) 3:01 AM CDT (4/19)
Length of Visible Light 13h 54m
Length of Day
13h 04m
First Quarter, 62% of the Moon is Illuminated
Apr 19
First Quarter
Apr 25
Full
May 2
Last Quarter
May 9
New
May 17
First Quarter

Hourly Weather History & Observations

Time (CDT) Temp. Windchill Dew Point Humidity Pressure Visibility Wind Dir Wind Speed Gust Speed Precip Events Conditions
12:51 AM 46.0 °F 42.5 °F 30.0 °F 54% 30.17 in 10.0 mi NE 6.9 mph - N/A   Clear
1:51 AM 45.0 °F 42.6 °F 30.0 °F 56% 30.19 in 10.0 mi NE 4.6 mph - N/A   Clear
2:51 AM 44.1 °F 41.5 °F 30.9 °F 60% 30.20 in 10.0 mi NNE 4.6 mph - N/A   Clear
3:51 AM 37.9 °F - 30.0 °F 73% 30.23 in 10.0 mi Calm Calm - N/A   Clear
4:51 AM 41.0 °F 38.0 °F 30.9 °F 67% 30.26 in 10.0 mi NNE 4.6 mph - N/A   Clear
5:51 AM 42.1 °F 39.2 °F 30.0 °F 62% 30.26 in 10.0 mi NNE 4.6 mph - N/A   Clear
6:51 AM 37.0 °F - 30.0 °F 76% 30.28 in 10.0 mi Calm Calm - N/A   Clear
7:51 AM 37.0 °F - 30.9 °F 79% 30.31 in 10.0 mi Calm Calm - N/A   Clear
8:51 AM 48.0 °F - 32.0 °F 54% 30.34 in 10.0 mi Calm Calm - N/A   Clear
9:51 AM 50.0 °F - 21.9 °F 33% 30.34 in 10.0 mi NE 4.6 mph - N/A   Clear
10:51 AM 54.0 °F - 21.9 °F 29% 30.34 in 10.0 mi ENE 6.9 mph - N/A   Clear
11:51 AM 55.9 °F - 19.0 °F 24% 30.33 in 10.0 mi East 5.8 mph - N/A   Clear
12:51 PM 57.9 °F - 19.9 °F 23% 30.31 in 10.0 mi Calm Calm - N/A   Clear
1:51 PM 61.0 °F - 19.0 °F 20% 30.27 in 10.0 mi Variable 6.9 mph - N/A   Clear
2:51 PM 63.0 °F - 19.0 °F 18% 30.24 in 10.0 mi WSW 8.1 mph - N/A   Clear
3:51 PM 66.0 °F - 17.1 °F 15% 30.21 in 10.0 mi WNW 6.9 mph - N/A   Clear
4:51 PM 66.0 °F - 16.0 °F 15% 30.16 in 10.0 mi Variable 3.5 mph - N/A   Clear
5:51 PM 66.9 °F - 16.0 °F 14% 30.14 in 10.0 mi Calm Calm - N/A   Clear
6:51 PM 66.9 °F - 18.0 °F 15% 30.13 in 10.0 mi Calm Calm - N/A   Clear
7:51 PM 64.9 °F - 19.0 °F 17% 30.12 in 10.0 mi Calm Calm - N/A   Clear
8:51 PM 61.0 °F - 21.9 °F 22% 30.12 in 10.0 mi SSE 4.6 mph - N/A   Clear
9:51 PM 57.9 °F - 26.1 °F 30% 30.13 in 10.0 mi South 5.8 mph - N/A   Clear
10:51 PM 52.0 °F - 28.0 °F 40% 30.13 in 10.0 mi SSE 9.2 mph - N/A   Clear
11:51 PM 51.1 °F - 26.1 °F 38% 30.13 in 10.0 mi SSE 5.8 mph - N/A   Clear